Location: Archemont
(49.1579°N, 1.7598°E)
Time: 19:36:37
(UTC+00:00)

SR - All Passes

Search period start: 19 April 2024 00:00
Search period end: 29 April 2024 00:00
Orbit: 577 x 863 km, 66.7° (Epoch: 19 April)

Date Brightness Start Highest point End Pass type
(mag) Time Alt. Az. Time Alt. Az. Time Alt. Az.
19 Apr - 00:41:33 10° SSE 00:45:14 18° ESE 00:48:46 10° ENE visible
19 Apr - 02:21:04 10° SW 02:26:37 84° NW 02:31:45 10° NE visible
19 Apr - 04:05:04 10° W 04:09:11 22° NW 04:13:06 10° NNE visible
19 Apr - 05:52:10 10° NNW 05:52:57 10° N 05:53:44 10° N daylight
19 Apr - 07:35:15 10° N 07:37:08 12° NNE 07:38:58 10° NE daylight
19 Apr - 09:16:15 10° NNW 09:20:31 34° NE 09:24:30 10° ESE daylight
19 Apr - 10:58:13 10° NW 11:02:26 38° WSW 11:06:24 10° S daylight
20 Apr - 01:29:12 10° SSW 01:34:34 54° ESE 01:39:35 10° NE visible
20 Apr - 03:11:47 10° WSW 03:16:41 34° NW 03:21:16 10° NNE visible
20 Apr - 04:57:49 10° NW 05:00:03 13° NNW 05:02:13 10° N daylight
20 Apr - 08:24:24 10° NNW 08:28:00 21° NNE 08:31:25 10° E daylight
20 Apr - 10:05:54 10° NW 10:10:30 81° SW 10:14:47 10° SSE daylight
20 Apr - 11:50:35 10° W 11:51:26 10° WSW 11:52:17 10° WSW daylight
21 Apr - 00:37:59 10° S 00:42:40 29° ESE 00:47:05 10° NE visible
21 Apr - 02:18:58 10° SW 02:24:21 56° NW 02:29:21 10° NNE visible
21 Apr - 04:03:52 10° WNW 04:07:15 17° NNW 04:10:30 10° NNE visible
21 Apr - 07:32:38 10° N 07:35:18 15° NNE 07:37:52 10° ENE daylight
21 Apr - 09:13:49 10° NNW 09:18:20 51° NE 09:22:33 10° SE daylight
21 Apr - 10:56:19 10° WNW 10:59:49 23° WSW 11:03:12 10° SSW daylight
21 Apr - 23:47:54 10° SE 23:50:55 15° ESE 23:53:50 10° ENE visible
22 Apr - 01:26:39 10° SSW 01:32:10 83° SE 01:37:17 10° NE visible
22 Apr - 03:10:16 10° W 03:14:37 25° NW 03:18:42 10° NNE visible
22 Apr - 04:57:07 10° NNW 04:58:16 11° NNW 04:59:24 10° N daylight
22 Apr - 06:41:00 10° N 06:42:27 11° NNE 06:43:52 10° NNE daylight
22 Apr - 08:21:52 10° NNW 08:25:56 29° NE 08:29:47 10° E daylight
22 Apr - 10:03:40 10° NW 10:08:01 47° WSW 10:12:08 10° SSE daylight
23 Apr - 00:34:55 10° S 00:40:08 45° ESE 00:45:01 10° NE visible
23 Apr - 02:17:05 10° WSW 02:22:08 38° NW 02:26:49 10° NNE visible
23 Apr - 04:02:50 10° NW 04:05:21 14° NNW 04:07:48 10° N visible
23 Apr - 07:30:01 10° NNW 07:33:21 19° NNE 07:36:31 10° ENE daylight
23 Apr - 09:11:24 10° NW 09:15:59 83° NE 09:20:17 10° SE daylight
23 Apr - 10:54:59 10° WNW 10:57:05 13° WSW 10:59:07 10° SW daylight
23 Apr - 23:43:56 10° SSE 23:48:14 24° ESE 23:52:21 10° ENE visible
24 Apr - 01:24:22 10° SW 01:29:48 66° NW 01:34:51 10° NNE visible
24 Apr - 03:08:56 10° WNW 03:12:34 19° NNW 03:16:03 10° NNE visible
24 Apr - 06:38:16 10° N 06:40:35 13° NNE 06:42:48 10° NE daylight
24 Apr - 08:19:21 10° NNW 08:23:44 43° NE 08:27:52 10° ESE daylight
24 Apr - 10:01:35 10° NW 10:05:23 28° WSW 10:09:02 10° S daylight
24 Apr - 22:54:28 10° SE 22:56:31 12° ESE 22:58:32 10° E visible
25 Apr - 00:32:12 10° SSW 00:37:39 70° ESE 00:42:42 10° NE visible
25 Apr - 02:15:24 10° W 02:19:57 28° NW 02:24:12 10° NNE visible
25 Apr - 04:01:59 10° NNW 04:03:28 11° NNW 04:04:57 10° N visible
25 Apr - 05:46:46 10° N 05:47:39 10° NNE 05:48:32 10° NNE daylight
25 Apr - 07:27:24 10° NNW 07:31:15 25° NE 07:34:55 10° E daylight
25 Apr - 09:09:03 10° NW 09:13:29 59° WSW 09:17:41 10° SSE daylight
25 Apr - 23:40:37 10° S 23:45:37 37° ESE 23:50:19 10° NE visible
26 Apr - 01:22:20 10° WSW 01:27:29 44° NW 01:32:17 10° NNE visible
26 Apr - 03:07:45 10° WNW 03:10:34 15° NNW 03:13:17 10° N visible
26 Apr - 06:35:33 10° NNW 06:38:35 17° NNE 06:41:30 10° ENE daylight
26 Apr - 08:16:49 10° NNW 08:21:22 68° NE 08:25:38 10° SE daylight
26 Apr - 09:59:51 10° WNW 10:02:37 16° WSW 10:05:18 10° SSW daylight
26 Apr - 22:49:53 10° SSE 22:53:44 20° ESE 22:57:26 10° ENE visible
27 Apr - 00:29:44 10° SW 00:35:11 78° NW 00:40:14 10° NE visible
27 Apr - 02:13:55 10° W 02:17:48 21° NNW 02:21:30 10° NNE visible
27 Apr - 05:43:50 10° N 05:45:44 12° NNE 05:47:36 10° NE daylight
27 Apr - 07:24:46 10° NNW 07:29:02 36° NE 07:33:01 10° ESE daylight
27 Apr - 09:06:48 10° NW 09:10:50 34° WSW 09:14:41 10° S daylight
27 Apr - 23:37:40 10° SSW 23:43:02 58° ESE 23:48:00 10° NE visible
28 Apr - 01:20:29 10° WSW 01:25:12 31° NW 01:29:36 10° NNE visible
28 Apr - 03:06:45 10° NW 03:08:36 12° NNW 03:10:24 10° N visible
28 Apr - 06:32:50 10° NNW 06:36:28 22° NE 06:39:54 10° E daylight
28 Apr - 08:14:21 10° NW 08:18:51 73° WSW 08:23:06 10° SSE daylight
28 Apr - 22:46:17 10° S 22:51:01 31° ESE 22:55:29 10° NE visible
